Location: *
(37.5724°S, 58.0067°E)
Time: 21:01:21
(UTC+00:00)

OAO 1 Rocket - Pass Details

Date: 26 September 2020
Orbit: 743 x 755 km, 35.0° (Epoch: 27 October)

Event Time Altitude Azimuth Distance (km) Brightness Sun altitude
Rises 15:56:03 0° 286° (WNW) 3,193 8.6 -21.7°
Reaches altitude 10° 15:58:32 10° 289° (WNW) 2,268 7.6 -22.2°
Maximum altitude 16:03:49 62° 9° (N) 842 4.5 -23.1°
Enters shadow 16:04:21 58° 39° (NE) 869 4.4 -23.2°
